Olathe, KS

5:48 PM CDT on September 26, 2017 (GMT -0500)
Johnson County Executive

Weather History for KOJC - February, 2013

Change the Weather History Date:

Friday, February 1, 2013

  Actual Average Record
Temperature  
Mean Temperature 16 °F 32 °F  
Max Temperature 25 °F 41 °F 67 °F (1992)
Min Temperature 6 °F 22 °F -12 °F (1979)
Degree Days  
Heating Degree Days 49 34  
Month to date heating degree days 49 34  
Since 1 July heating degree days 2812 3082  
Cooling Degree Days 0 0  
Month to date cooling degree days 0 0  
Year to date cooling degree days 1 0  
Moisture  
Dew Point 7 °F    
Average Humidity 68    
Maximum Humidity 80    
Minimum Humidity 55    
Precipitation  
Precipitation 0.00 in 0.05 in 0.45 in (1973)
Month to date precipitation 0.00 0.05  
Year to date precipitation 1.79 1.17  
Sea Level Pressure  
Sea Level Pressure 30.37 in    
Wind  
Wind Speed 6 mph (SSW)    
Max Wind Speed 15 mph    
Max Gust Speed 17 mph    
Visibility 10 miles    
Events      
T = Trace of Precipitation, MM = Missing Value Source: NWS Daily Summary

Daily Weather History Graph

Daily Weather History Graph

Search for Another Location

Airport or City:

Trip Planner

Search our weather history database for the weather conditions in past years. The results will help you decide how hot, cold, wet, or windy it might be!

Date:

Astronomy

Feb. 01, 2013 Rise Set
Actual Time 7:24 AM CST 5:40 PM CST
Civil Twilight 6:56 AM CST 6:08 PM CST
Nautical Twilight 6:24 AM CST 6:40 PM CST
Astronomical Twilight 5:53 AM CST 7:12 PM CST
Moon 11:44 PM CST (2/1) 10:02 AM CST (2/1)
Length of Visible Light 11h 12m
Length of Day
10h 16m
Waning Gibbous, 70% of the Moon is Illuminated
Feb 1
Waning Gibbous
Feb 3
Last Quarter
Feb 10
New
Feb 17
First Quarter
Feb 25
Full

Hourly Weather History & Observations

Time (CST) Temp. Windchill Dew Point Humidity Pressure Visibility Wind Dir Wind Speed Gust Speed Precip Events Conditions
12:53 AM 8.1 °F - 1.0 °F 73% 30.50 in 10.0 mi Calm Calm - N/A   Clear
1:53 AM 8.1 °F -2.0 °F -0.0 °F 70% 30.49 in 10.0 mi NW 5.8 mph - N/A   Clear
2:53 AM 8.1 °F 1.4 °F 1.0 °F 73% 30.48 in 10.0 mi NNW 3.5 mph - N/A   Clear
3:53 AM 7.0 °F - -0.9 °F 70% 30.47 in 10.0 mi Calm Calm - N/A   Clear
4:53 AM 7.0 °F - -0.9 °F 70% 30.45 in 10.0 mi Calm Calm - N/A   Clear
5:53 AM 8.1 °F - -0.9 °F 67% 30.44 in 10.0 mi Calm Calm - N/A   Clear
6:53 AM 7.0 °F 0.1 °F 1.0 °F 77% 30.48 in 10.0 mi WSW 3.5 mph - N/A   Clear
7:53 AM 8.1 °F 1.4 °F -0.0 °F 70% 30.50 in 10.0 mi SW 3.5 mph - N/A   Clear
8:53 AM 10.9 °F - 3.0 °F 70% 30.50 in 10.0 mi Calm Calm - N/A   Clear
9:53 AM 14.0 °F 2.9 °F 3.0 °F 62% 30.48 in 10.0 mi SSW 8.1 mph - N/A   Clear
10:53 AM 17.1 °F 5.0 °F 6.1 °F 62% 30.45 in 10.0 mi South 10.4 mph - N/A   Clear
11:53 AM 19.9 °F 8.6 °F 8.1 °F 60% 30.42 in 10.0 mi South 10.4 mph - N/A   Clear
12:53 PM 21.0 °F 9.3 °F 10.0 °F 63% 30.38 in 10.0 mi South 11.5 mph - N/A   Scattered Clouds
1:53 PM 23.0 °F 13.1 °F 10.0 °F 58% 30.35 in 10.0 mi SSW 9.2 mph - N/A   Mostly Cloudy
2:53 PM 23.0 °F 11.7 °F 10.0 °F 58% 30.32 in 10.0 mi South 11.5 mph - N/A   Overcast
3:53 PM 24.1 °F 13.7 °F 10.0 °F 55% 30.30 in 10.0 mi South 10.4 mph - N/A   Mostly Cloudy
4:53 PM 25.0 °F 16.3 °F 10.9 °F 55% 30.27 in 10.0 mi South 8.1 mph - N/A   Overcast
5:53 PM 24.1 °F 14.4 °F 12.9 °F 62% 30.25 in 10.0 mi South 9.2 mph - N/A   Partly Cloudy
6:53 PM 24.1 °F 15.2 °F 14.0 °F 65% 30.24 in 10.0 mi South 8.1 mph - N/A   Mostly Cloudy
7:53 PM 24.1 °F 16.0 °F 14.0 °F 65% 30.24 in 10.0 mi South 6.9 mph - N/A   Clear
8:53 PM 23.0 °F 13.9 °F 12.9 °F 65% 30.23 in 10.0 mi South 8.1 mph - N/A   Clear
9:53 PM 21.9 °F 13.4 °F 14.0 °F 72% 30.22 in 10.0 mi South 6.9 mph - N/A   Clear
10:53 PM 24.1 °F 16.0 °F 12.9 °F 62% 30.19 in 10.0 mi South 6.9 mph - N/A   Clear
11:53 PM 25.0 °F 16.3 °F 14.0 °F 63% 30.17 in 10.0 mi South 8.1 mph - N/A   Mostly Cloudy